Dewpoint
-1 -2 -2 -2 -2 -2 -2 -2 -4 -6 -12 -18 -19 -32 -36 -37 -37 -25 -18 -19 -20 -21 -21 -23 -23 -24 -24 -3 -10 -17 -21 -12 -13 -11 -13 -14 -13 -13 -9 -7 -6 -8 -8 -11 -11 -9 -4
-1 -1 -1 -2 -1 -3 -1 -2 -3 -6 -10 -15 -19 -27 -36 -38 -38 -38 -27 -18 -19 -21 -21 -20 -21 -21 -8 -6 -18 -19 -15 -10 -9 -10 -13 -15 -14 -14 -13 -10 -7 -8 -8 -9 -9 -6 1
-3 -1 -2 -2 -3 -3 -3 -2 -3 -4 -9 -14 -19 -32 -37 -38 -38 -38 -37 -19 -18 -20 -19 -18 -18 -18 -3 -9 -12 -14 -12 -16 -14 -12 -12 -14 -14 -13 -13 -11 -10 -9 -9 -8 -6 -1 2
-2 -2 -2 -2 -3 -2 -3 -3 -4 -9 -18 -22 -28 -34 -37 -38 -38 -38 -37 -21 -18 -19 -16 -13 -14 -2 -4 -10 -14 -13 -16 -14 -12 -12 -12 -13 -13 -12 -12 -12 -10 -8 -6 -3 -5 -2 1
-3 -2 -2 -3 -3 -3 -2 -3 -3 -4 -21 -34 -37 -37 -37 -38 -38 -38 -28 -18 -17 -16 -10 -9 -5 0 -8 -11 -16 -15 -17 -15 -14 -13 -11 -11 -14 -13 -13 -10 -8 -7 -3 -3 -4 -3 1
-3 -3 -2 -2 -3 -2 -3 -3 -3 -5 -24 -34 -38 -38 -37 -39 -38 -35 -18 -14 -12 -11 -4 -1 -1 -3 -6 -16 -10 -10 -13 -16 -13 -13 -13 -12 -14 -12 -13 -12 -9 -8 -4 -4 -3 -2 -1
-4 -3 -3 -3 -3 -3 -3 -3 -3 -4 -20 -31 -36 -37 -37 -39 -38 -12 -12 -1 2 4 2 -3 -5 -8 -14 -11 -9 -11 -12 -13 -13 -12 -11 -14 -13 -14 -14 -13 -14 -13 -9 -5 -5 -4 -1
-3 -3 -3 -3 -3 -3 -3 -3 -4 -4 -16 -27 -35 -37 -37 -38 -29 -6 -1 -1 -1 -0 -1 -6 -7 -6 -8 -8 -7 -11 -12 -13 -13 -11 -13 -13 -11 -15 -17 -16 -15 -14 -11 -7 -7 -5 -2
-4 -3 -3 -3 -3 -4 -3 -3 -4 -10 -21 -24 -34 -37 -36 -34 -14 -4 0 -1 -2 2 0 -8 -6 -7 -7 -6 -6 -12 -11 -14 -14 -12 -14 -12 -14 -15 -17 -16 -14 -13 -11 -9 -7 -3 -4
-4 -6 -4 -3 -3 -4 -4 -3 -4 -9 -19 -24 -34 -35 -25 -21 -5 -10 1 -2 -1 2 1 -4 -7 -5 -6 -6 -8 -10 -12 -13 -14 -12 -14 -14 -16 -16 -14 -13 -14 -11 -14 -12 -8 -3 -1
-5 -5 -4 -4 -4 -4 -5 -3 -4 -9 -18 -24 -32 -15 -10 -11 -4 -8 -4 -2 0 3 7 -15 -8 -4 -5 -8 -11 -12 -12 -12 -11 -12 -13 -12 -13 -13 -14 -14 -16 -13 -15 -14 -12 -7 -2
-4 -4 -5 -4 -4 -4 -4 -5 -7 -13 -16 -22 -29 -7 -6 -1 1 -1 -5 -6 3 5 4 -13 -6 -5 -5 -7 -10 -11 -11 -12 -12 -12 -13 -12 -15 -14 -14 -16 -16 -16 -14 -13 -13 -10 -1
-5 -5 -5 -5 -5 -5 -5 -5 -10 -13 -15 -21 -29 -6 -5 -1 -1 -9 -9 3 5 7 -14 -9 -7 -7 -7 -7 -8 -11 -9 -9 -10 -7 -8 -11 -12 -15 -13 -12 -13 -14 -10 -8 -8 -6 -5
-6 -6 -6 -6 -5 -5 -8 -9 -11 -11 -14 -20 -28 -9 -2 -1 -3 -9 3 1 6 -10 -9 -8 -8 -9 -8 -11 -10 -9 -10 -9 -11 -11 -11 -11 -9 -13 -14 -12 -13 -13 -11 -5 -6 -7 -8
-5 -6 -6 -7 -6 -7 -9 -9 -11 -11 -14 -20 -17 -3 -6 -7 -5 -1 2 9 2 -3 -4 -4 -7 -11 -14 -14 -10 -9 -8 -10 -11 -11 -8 -8 -10 -16 -15 -14 -13 -12 -10 -12 -6 -9 -7
-5 -6 -6 -6 -6 -9 -10 -10 -10 -11 -15 -19 -6 -5 -6 -10 -4 2 -1 2 -2 -3 -6 -5 -5 -8 -5 -8 -5 -5 -10 -4 -4 -6 -7 -9 -6 -11 -12 -13 -14 -12 -15 -8 -6 -3 -4
-9 -4 -5 -6 -6 -6 -8 -8 -10 -11 -15 -14 -7 -7 -10 -7 -3 -2 4 -2 -4 -7 -7 -5 -4 -4 -5 -6 -5 -4 -6 -2 -3 -3 -3 -4 -5 -7 -10 -9 -10 -12 -11 -10 -10 -6 -1
-18 -6 -5 -6 -6 -7 -9 -8 -10 -12 -14 -8 -9 -1 -9 -5 -3 -2 -2 -5 -7 -8 -8 -6 -6 -3 -3 -3 -3 -4 -4 -1 -4 -4 -0 -1 -0 -3 -7 -10 -12 -11 -11 -11 -4 -6 -6
-24 -13 -6 -6 -7 -7 -7 -8 -7 -13 -15 -6 -8 -6 -10 -8 -0 -2 -9 -8 -10 -9 -6 -7 -6 -6 -5 -5 -4 -6 -6 -1 -5 -5 -2 -2 0 -1 -4 -7 -9 -8 -10 -11 -10 -7 -6
-23 -18 -8 -6 -7 -6 -7 -7 -8 -11 -15 -5 -8 -2 -8 -8 -10 -10 -12 -12 -12 -13 -10 -12 -7 -8 -7 -6 -7 -5 -5 -6 -6 -8 -5 -5 0 1 -1 -6 -8 -6 -8 -8 -8 -1 -3
-8 -8 -8 -7 -7 -6 -6 -6 -6 -9 -13 -6 -7 -7 -9 -4 -7 -11 -12 -13 -14 -12 -15 -17 -9 -7 -10 -8 -7 -6 -6 -6 -9 -10 -7 -5 -1 -1 -1 -3 -5 -5 -5 -8 -8 -7 -2
-6 -6 -7 -7 -6 -6 -5 -6 -6 -8 -12 -7 -7 -7 -9 -10 -12 -12 -11 -10 -14 -14 -14 -14 -14 -14 -15 -13 -13 -11 -12 -11 -8 -9 -7 -7 -1 -2 -1 -2 -2 -1 -3 -6 -8 -9 -8
-6 -7 -7 -6 -6 -6 -6 -5 -6 -7 -9 -6 -7 -7 -7 -8 -12 -11 -10 -13 -13 -14 -14 -15 -15 -13 -13 -15 -15 -14 -13 -13 -12 -9 -7 -8 -6 -5 0 -2 -2 2 -2 -5 -7 -9 -9
-6 -6 -6 -7 -6 -7 -7 -6 -7 -6 -7 -6 -5 -7 -7 -6 -11 -12 -13 -13 -14 -14 -13 -14 -14 -14 -15 -15 -14 -15 -16 -16 -14 -13 -13 -10 -7 -5 -2 -3 4 -0 -5 -7 -7 -8 -9
-9 -7 -7 -7 -7 -8 -8 -8 -6 -7 -6 -5 -5 -5 -5 -6 -11 -12 -13 -13 -14 -14 -13 -13 -14 -15 -14 -14 -12 -12 -10 -11 -13 -13 -13 -12 -10 -3 -0 -3 -3 -5 -6 -7 -8 -8 -9
-8 -9 -8 -7 -7 -7 -8 -8 -7 -6 -7 -5 -5 -5 -5 -5 -9 -12 -12 -13 -12 -12 -10 -13 -14 -14 -13 -13 -10 -7 -7 -11 -12 -13 -14 -13 -12 -4 -4 -2 -0 -6 -8 -9 -6 -2 -3
-8 -9 -8 -7 -7 -7 -8 -7 -8 -7 -7 -6 -5 -5 -5 -5 -8 -10 -10 -10 -12 -13 -11 -14 -13 -13 -12 -11 -7 -7 -8 -13 -11 -12 -12 -8 -8 -4 -3 -1 -6 -11 -11 -10 1 2 -3
-8 -8 -7 -6 -7 -7 -7 -8 -8 -9 -8 -7 -6 -5 -5 -5 -7 -8 -9 -9 -9 -11 -10 -14 -12 -10 -10 -7 -9 -8 -9 -10 -11 -13 -14 -12 -8 0 -5 -3 -3 -12 -9 -6 -0 -4 -6
-7 -7 -6 -7 -7 -7 -7 -8 -9 -8 -8 -8 -5 -7 -5 -5 -6 -9 -8 -8 -10 -11 -10 -12 -11 -12 -9 -9 -9 -11 -9 -9 -12 -9 -15 -9 -11 -5 -1 -1 -9 -6 -2 -4 -5 -7 -8
Wind_Speed
20 23 23 24 25 25 26 25 27 26 27 25 23 21 19 18 18 19 17 16 16 16 17 16 14 12 9 7 14 13 9 4 2 5 11 13 16 18 20 19 22 13 20 7 4 10 15
20 22 24 25 26 25 26 26 26 27 26 26 25 23 20 20 19 18 17 16 16 15 15 15 13 10 6 15 6 13 6 7 6 6 10 13 15 15 22 18 17 17 25 11 13 13 9
21 23 24 25 25 27 26 27 26 26 27 26 25 22 20 20 20 17 15 15 15 14 13 12 11 8 10 19 6 7 7 7 10 9 9 11 12 11 9 16 19 15 14 10 14 16 10
21 21 24 25 27 27 28 29 30 29 28 26 25 23 21 20 20 18 13 13 13 13 12 11 10 4 10 8 9 11 11 9 10 10 9 7 9 14 20 17 6 15 17 16 19 17 15
22 23 24 26 26 27 28 30 30 30 28 27 26 25 22 20 19 17 12 11 11 11 11 10 7 5 9 9 7 7 11 11 11 11 11 10 8 16 16 17 14 16 19 23 19 21 12
22 23 25 26 27 27 28 30 32 31 30 28 27 26 24 21 19 14 11 9 9 11 11 8 9 8 11 6 5 5 8 13 11 11 11 14 12 12 16 16 21 20 22 22 25 18 20
23 23 25 26 26 27 28 30 32 33 32 31 29 27 25 21 17 11 8 8 6 5 10 13 1 11 2 3 7 7 9 12 14 13 15 18 14 19 22 23 24 25 25 26 27 21 22
26 25 25 26 27 28 29 31 32 33 33 34 31 29 24 20 12 7 12 4 6 7 12 17 24 23 19 10 9 13 11 14 17 16 16 16 19 19 20 22 22 26 27 24 22 16 18
24 26 26 27 27 29 30 31 33 35 34 35 32 28 23 17 5 8 8 8 9 7 8 6 11 14 15 14 13 15 16 20 14 17 17 19 17 14 22 21 19 22 26 21 25 14 12
25 24 23 26 28 30 30 32 33 35 34 34 32 25 20 12 6 7 2 9 11 4 5 9 6 3 6 8 9 25 19 19 16 17 18 19 17 17 13 20 19 23 22 24 26 15 15
27 27 25 26 28 30 31 33 33 35 34 32 32 20 18 13 8 5 8 9 9 4 4 4 6 2 3 11 6 11 22 21 18 16 12 17 13 16 22 22 19 24 22 22 26 23 15
26 28 27 25 28 30 31 33 35 36 35 31 27 17 17 13 7 9 9 5 3 3 6 4 3 2 7 12 12 3 13 19 15 20 18 19 15 14 17 16 20 19 19 21 22 21 18
26 28 28 28 26 29 32 33 35 36 36 31 24 13 17 12 12 11 3 2 4 4 3 3 4 4 9 11 9 10 13 16 14 13 19 20 22 21 14 16 16 18 16 14 18 17 17
25 26 27 29 26 29 32 34 35 36 36 32 20 9 12 10 13 8 4 5 4 1 5 9 10 14 15 10 10 13 15 15 21 22 15 16 19 23 20 24 21 24 20 15 23 18 22
25 25 25 27 26 29 31 33 35 36 35 33 16 6 14 12 9 5 8 1 3 9 10 11 17 15 14 12 5 10 13 17 17 19 20 16 21 19 13 20 20 24 22 26 26 24 21
24 25 25 26 26 29 30 32 34 36 35 30 18 7 14 10 8 3 6 2 2 6 14 11 8 6 11 10 4 12 13 13 12 17 19 21 22 19 8 15 20 26 21 19 17 26 28
23 25 25 26 26 27 28 30 32 35 36 26 14 7 15 9 9 7 2 2 5 9 10 8 13 13 13 14 13 13 13 10 15 14 18 16 17 22 17 21 19 19 21 21 19 20 18
22 23 26 26 26 26 26 27 29 32 35 26 14 4 21 13 5 5 1 3 7 9 7 8 8 10 10 14 14 14 15 11 18 18 13 12 8 17 27 19 17 23 24 25 16 22 18
21 21 22 26 26 25 25 24 26 28 28 22 12 7 15 12 4 4 6 3 4 8 9 6 5 5 12 13 9 12 16 4 15 16 14 12 7 14 19 18 23 21 24 22 23 21 23
23 20 21 24 25 23 22 21 21 24 25 14 10 4 8 13 9 6 7 4 6 4 6 10 6 8 11 13 13 11 16 8 12 18 14 15 11 16 16 21 17 18 23 23 24 17 20
24 22 21 22 26 23 20 19 18 20 21 11 9 4 4 4 5 8 6 4 7 6 5 11 2 4 7 7 15 18 12 18 20 18 10 10 11 17 20 25 25 24 24 25 26 26 24
25 24 23 22 25 23 20 18 17 17 14 8 6 5 10 15 7 8 0 5 5 7 8 9 8 10 11 13 14 20 21 18 15 12 9 8 10 16 20 20 22 25 25 25 22 29 28
24 24 22 22 24 22 21 18 15 13 10 6 5 5 6 8 7 5 5 5 9 12 6 7 10 13 14 14 19 24 27 28 26 22 20 19 13 13 20 19 23 24 27 29 24 22 22
25 24 23 24 24 22 21 19 15 12 9 8 6 5 5 7 10 8 11 14 14 13 15 18 18 17 18 19 22 28 30 32 33 30 31 23 19 13 15 17 18 15 23 26 28 27 26
26 24 25 25 23 22 21 20 16 13 14 11 11 7 6 7 12 16 16 14 16 19 18 20 21 18 16 19 16 16 16 18 22 27 27 23 20 14 15 15 22 27 19 19 24 29 25
28 27 26 27 23 22 21 19 19 16 15 16 17 15 14 9 11 13 12 18 14 13 14 19 18 13 13 14 11 16 11 19 10 11 20 23 24 16 13 18 24 25 22 31 24 18 16
30 29 28 27 24 22 21 20 19 19 18 19 22 21 22 14 23 22 19 10 14 18 12 22 24 20 15 10 12 15 16 17 18 20 17 13 17 22 20 19 18 20 18 33 18 7 23
31 29 30 25 24 24 23 22 22 21 21 22 27 23 27 24 30 27 26 29 22 17 13 23 19 16 14 13 11 13 13 14 14 18 20 20 8 8 20 20 22 9 22 20 4 11 20
30 29 27 26 25 26 24 23 23 23 23 24 30 27 28 34 24 18 22 22 26 32 33 31 32 34 10 6 6 6 10 9 16 15 15 14 11 12 3 5 14 25 11 12 13 10 18
Wind_Direction
24 19 19 17 15 11 7 6 359 356 352 351 347 341 334 326 314 300 300 302 302 307 310 311 310 308 315 264 263 270 266 273 287 224 231 234 242 239 245 244 241 224 256 207 238 228 233
25 20 18 15 13 9 6 3 359 357 351 347 344 342 338 331 324 313 297 296 298 303 306 309 309 303 299 261 248 258 253 244 234 243 238 232 241 255 265 266 255 228 240 194 213 209 180
25 19 17 12 10 9 6 359 357 353 352 347 342 342 335 330 326 321 304 289 294 299 301 305 310 304 266 246 285 255 262 241 234 237 248 238 239 247 236 256 249 263 245 209 204 179 186
18 18 13 9 10 9 4 0 359 359 1 353 345 340 335 329 325 323 309 292 291 294 295 301 308 299 264 263 252 258 242 247 236 234 237 247 248 249 256 254 271 221 226 210 209 189 183
17 15 13 10 7 5 3 356 355 355 1 354 346 338 337 329 324 321 314 299 290 287 286 289 317 256 269 258 261 250 225 227 229 231 235 242 249 242 237 238 231 215 227 223 205 192 179
17 13 11 7 3 1 359 355 353 354 0 355 348 339 336 331 326 328 325 318 302 286 295 277 254 261 247 244 223 233 229 214 221 223 228 228 230 237 225 220 227 222 223 240 224 178 205
13 10 6 3 359 0 356 353 351 352 359 354 349 345 337 332 332 346 347 349 298 238 229 232 320 250 232 262 263 244 216 208 218 227 227 207 226 229 231 227 247 252 239 222 248 174 198
6 4 2 358 356 355 354 352 351 350 356 352 350 345 341 336 342 8 21 46 37 311 298 257 253 253 252 267 289 236 205 202 209 228 220 237 231 251 248 250 239 245 254 254 233 163 183
358 357 354 354 354 352 352 351 351 355 356 353 349 347 346 347 11 17 36 40 346 324 263 270 238 251 247 235 240 242 205 213 221 231 237 235 234 240 241 246 245 248 240 245 251 149 202
353 348 351 351 350 352 352 351 350 353 356 353 348 349 353 9 31 5 11 347 341 332 268 152 186 196 192 215 246 229 215 221 230 243 238 250 242 247 242 250 240 243 239 247 256 180 210
355 351 352 348 349 352 351 350 349 353 355 353 349 356 2 12 348 2 301 320 330 2 300 103 137 156 188 215 357 202 209 219 237 220 247 230 228 245 231 238 242 248 258 249 242 251 226
1 356 356 353 349 351 351 350 351 354 354 352 350 357 4 357 355 321 310 304 338 239 242 143 130 204 213 217 246 120 206 228 238 252 236 251 259 242 253 252 241 263 251 254 258 236 234
355 351 353 352 349 349 351 350 352 354 353 350 349 358 10 3 333 324 322 292 243 196 122 94 7 310 303 276 222 222 199 212 220 221 239 240 239 247 225 252 242 221 236 227 232 229 231
355 352 350 352 351 350 350 350 351 353 355 350 352 2 7 336 340 338 328 226 212 295 359 357 312 300 273 277 240 239 235 228 215 251 261 240 233 224 226 226 244 214 224 231 231 226 231
356 353 352 350 352 348 348 349 350 351 355 351 2 334 354 341 354 337 253 218 296 357 359 321 309 260 263 245 268 305 243 251 249 216 242 262 257 266 228 224 223 241 219 235 246 248 243
353 350 350 350 349 347 347 349 351 352 355 354 351 333 350 355 0 330 262 299 360 16 334 312 295 335 306 305 328 286 254 29 345 328 317 252 263 269 250 235 241 233 244 227 236 244 244
347 347 347 346 345 347 348 349 350 353 355 4 353 317 346 13 1 264 127 296 342 335 338 322 331 310 301 305 302 284 277 68 13 336 323 294 270 252 255 233 240 225 236 247 242 237 251
336 342 342 342 343 345 348 350 349 351 354 7 355 2 343 19 49 16 16 355 315 345 342 326 310 328 322 313 300 280 273 42 15 352 334 334 293 257 246 249 250 251 248 227 240 235 241
329 329 336 337 338 340 342 347 349 357 2 359 356 335 354 20 51 27 336 281 340 351 5 352 319 352 318 301 290 268 269 74 19 359 359 343 273 253 246 241 243 247 248 251 232 245 250
327 322 327 330 332 333 335 339 343 353 3 9 360 341 354 32 22 360 350 330 326 22 315 335 315 318 333 316 275 275 294 304 344 324 330 306 259 264 260 251 246 230 234 253 254 227 241
321 321 322 325 325 329 332 331 335 346 5 6 6 345 358 329 350 336 353 312 325 350 343 310 218 274 345 308 316 281 304 324 311 299 288 331 276 279 281 284 281 285 282 228 239 247 238
317 318 317 321 320 323 324 325 328 335 3 350 358 343 329 294 310 295 113 293 336 334 327 308 304 334 308 288 280 287 298 295 294 296 286 313 280 297 290 281 279 276 271 271 244 232 246
312 313 314 317 319 318 321 318 319 319 354 332 335 313 301 294 289 295 300 321 294 310 303 269 296 304 294 313 317 302 291 280 272 278 275 283 267 265 270 281 272 256 248 255 261 263 245
307 309 309 312 313 314 312 311 308 301 300 288 286 288 285 281 294 293 296 294 291 286 293 294 288 283 295 307 300 293 276 264 255 251 248 251 257 262 260 274 274 248 246 246 251 261 262
306 304 306 308 305 303 303 305 298 289 281 270 266 249 251 267 278 293 285 294 296 288 267 273 281 288 302 293 294 297 301 282 248 238 237 230 237 250 249 240 253 276 272 256 248 249 249
300 300 304 305 300 298 298 298 297 286 278 268 260 252 249 262 262 281 280 290 290 297 291 288 284 289 275 277 283 277 268 298 284 291 215 223 226 231 239 240 243 250 259 264 277 277 355
299 297 301 299 293 293 292 291 291 287 279 269 264 256 249 247 263 267 267 270 285 289 288 291 282 279 274 257 265 264 263 266 267 269 272 246 216 215 227 242 257 267 251 251 278 264 356
297 294 298 292 293 292 288 286 284 284 279 275 272 264 252 253 264 264 263 263 267 258 270 289 294 269 257 257 265 265 257 259 268 261 265 278 286 231 234 235 246 287 254 269 25 343 357
295 296 292 289 289 287 285 282 283 278 281 276 270 271 261 250 252 256 261 252 256 269 279 280 270 266 258 264 251 272 271 285 280 272 277 272 264 271 209 283 253 354 339 346 341 357 356
Height
1572 1569 1565 1561 1557 1553 1549 1545 1541 1536 1532 1528 1524 1521 1517 1514 1511 1509 1507 1506 1505 1503 1502 1500 1499 1498 1497 1497 1491 1485 1487 1487 1486 1487 1490 1489 1488 1485 1478 1474 1471 1471 1469 1471 1475 1476 1470
1574 1571 1567 1563 1559 1555 1550 1546 1541 1536 1532 1527 1523 1519 1515 1512 1508 1506 1504 1503 1501 1500 1499 1498 1497 1496 1496 1495 1487 1486 1486 1487 1488 1488 1487 1488 1485 1483 1477 1473 1468 1467 1470 1471 1476 1476 1474
1576 1573 1569 1564 1561 1556 1552 1547 1541 1536 1531 1526 1521 1517 1513 1509 1506 1503 1500 1499 1499 1497 1497 1496 1495 1494 1495 1488 1485 1485 1484 1486 1487 1487 1486 1486 1485 1486 1479 1475 1471 1470 1469 1471 1473 1475 1477
1578 1575 1571 1566 1562 1558 1553 1548 1542 1536 1531 1525 1520 1515 1511 1507 1503 1500 1498 1497 1496 1495 1494 1493 1493 1494 1489 1483 1482 1481 1483 1484 1485 1486 1486 1486 1485 1484 1480 1475 1472 1471 1469 1470 1467 1470 1474
1580 1576 1572 1568 1564 1559 1555 1549 1543 1537 1531 1525 1519 1514 1509 1505 1501 1497 1495 1494 1493 1492 1492 1492 1493 1495 1485 1479 1479 1480 1481 1482 1483 1484 1484 1484 1484 1481 1478 1474 1472 1463 1462 1463 1457 1465 1471
1581 1578 1574 1570 1566 1561 1556 1550 1543 1537 1530 1525 1519 1513 1508 1503 1499 1496 1494 1492 1491 1490 1490 1490 1492 1495 1480 1478 1478 1478 1479 1480 1481 1481 1482 1483 1480 1474 1471 1465 1464 1458 1461 1451 1453 1461 1468
1583 1579 1575 1571 1567 1561 1556 1550 1543 1536 1530 1524 1518 1512 1507 1502 1498 1495 1493 1494 1494 1491 1490 1482 1480 1477 1477 1477 1476 1476 1477 1478 1479 1478 1474 1474 1472 1464 1461 1458 1453 1448 1444 1447 1439 1440 1460
1584 1580 1576 1572 1567 1562 1556 1550 1543 1536 1529 1522 1516 1510 1505 1501 1498 1497 1495 1497 1499 1499 1488 1478 1476 1475 1475 1477 1476 1473 1475 1476 1475 1471 1469 1468 1465 1460 1457 1454 1451 1450 1447 1439 1434 1434 1452
1585 1580 1576 1572 1567 1561 1555 1549 1542 1535 1528 1521 1515 1509 1504 1500 1498 1499 1500 1499 1498 1497 1491 1470 1471 1471 1473 1475 1472 1469 1471 1470 1467 1467 1462 1461 1454 1454 1458 1453 1455 1450 1450 1448 1442 1448 1455
1585 1580 1576 1572 1566 1561 1555 1548 1542 1534 1527 1520 1513 1508 1504 1501 1502 1500 1502 1499 1497 1495 1481 1461 1466 1466 1469 1470 1466 1464 1465 1468 1465 1462 1458 1454 1454 1455 1459 1458 1456 1456 1447 1449 1442 1450 1462
1585 1580 1576 1571 1566 1560 1554 1548 1541 1534 1527 1520 1513 1508 1505 1501 1503 1504 1502 1498 1497 1496 1484 1460 1463 1467 1466 1465 1461 1455 1461 1464 1460 1458 1459 1452 1454 1454 1453 1453 1454 1452 1448 1445 1444 1441 1452
1585 1581 1575 1571 1565 1560 1554 1548 1540 1534 1527 1520 1513 1509 1506 1505 1505 1503 1498 1497 1499 1491 1484 1457 1460 1461 1462 1461 1459 1457 1461 1463 1461 1458 1452 1452 1447 1451 1449 1449 1451 1449 1450 1449 1442 1442 1452
1586 1581 1576 1570 1565 1560 1554 1547 1540 1533 1526 1519 1513 1510 1506 1506 1505 1499 1498 1501 1492 1495 1459 1460 1463 1462 1459 1455 1452 1454 1456 1458 1457 1462 1456 1449 1446 1446 1453 1453 1448 1448 1459 1461 1459 1445 1446
1586 1581 1576 1571 1565 1560 1554 1548 1541 1533 1526 1518 1512 1510 1510 1508 1503 1500 1502 1496 1499 1469 1467 1470 1471 1467 1460 1448 1447 1448 1450 1449 1449 1449 1444 1439 1441 1435 1439 1443 1442 1440 1447 1450 1458 1446 1438
1586 1581 1576 1571 1566 1560 1554 1548 1541 1533 1526 1518 1511 1512 1512 1506 1502 1501 1502 1491 1489 1483 1492 1486 1471 1459 1452 1447 1453 1446 1445 1442 1439 1439 1450 1442 1435 1422 1425 1432 1441 1436 1436 1432 1437 1426 1425
1585 1581 1576 1571 1566 1561 1555 1548 1541 1534 1526 1518 1513 1513 1511 1505 1502 1503 1496 1500 1493 1505 1502 1492 1478 1464 1461 1448 1455 1454 1445 1450 1448 1443 1440 1434 1441 1428 1427 1432 1429 1431 1423 1436 1431 1443 1437
1585 1580 1576 1571 1566 1561 1555 1549 1542 1535 1527 1519 1518 1513 1511 1507 1503 1501 1501 1500 1507 1507 1506 1498 1486 1480 1476 1469 1464 1462 1451 1468 1469 1461 1455 1444 1439 1433 1428 1426 1427 1427 1428 1423 1419 1420 1425
1583 1579 1575 1570 1565 1561 1556 1550 1544 1538 1530 1523 1521 1518 1515 1508 1511 1515 1514 1514 1515 1508 1506 1502 1499 1496 1489 1483 1474 1468 1460 1464 1479 1472 1462 1458 1445 1433 1425 1419 1418 1418 1413 1417 1420 1423 1411
1581 1577 1573 1569 1565 1560 1556 1552 1547 1541 1535 1529 1527 1524 1520 1514 1516 1520 1517 1512 1513 1512 1511 1509 1506 1505 1502 1497 1489 1471 1467 1476 1481 1478 1481 1474 1446 1437 1427 1420 1415 1414 1410 1408 1408 1412 1412
1578 1575 1571 1568 1563 1560 1556 1552 1548 1544 1540 1535 1533 1530 1527 1525 1525 1521 1518 1513 1513 1514 1514 1514 1511 1508 1507 1498 1488 1480 1474 1476 1481 1486 1488 1479 1458 1442 1425 1415 1407 1411 1409 1408 1404 1411 1412
1575 1571 1568 1565 1561 1558 1555 1552 1548 1545 1542 1539 1538 1536 1536 1528 1529 1524 1521 1519 1515 1515 1518 1515 1510 1509 1511 1508 1499 1492 1485 1488 1485 1485 1484 1482 1464 1448 1433 1421 1411 1407 1405 1397 1404 1399 1402
1571 1568 1565 1562 1559 1556 1553 1550 1548 1545 1543 1542 1541 1541 1537 1530 1528 1524 1523 1523 1519 1520 1522 1517 1515 1514 1514 1511 1507 1501 1496 1493 1489 1486 1479 1483 1474 1458 1448 1437 1426 1418 1409 1398 1390 1391 1390
1567 1564 1561 1558 1555 1553 1550 1548 1546 1545 1544 1543 1542 1542 1540 1533 1525 1522 1521 1520 1521 1521 1519 1518 1518 1516 1510 1508 1508 1506 1504 1502 1497 1492 1487 1485 1475 1461 1453 1440 1428 1421 1408 1398 1391 1385 1388
1562 1559 1557 1554 1552 1549 1547 1545 1544 1543 1543 1543 1541 1541 1540 1530 1524 1520 1520 1520 1518 1518 1516 1516 1515 1512 1509 1509 1507 1502 1493 1486 1482 1479 1481 1476 1469 1461 1452 1448 1443 1404 1396 1395 1395 1389 1386
1557 1554 1552 1549 1547 1545 1543 1541 1540 1539 1539 1539 1538 1538 1536 1529 1526 1522 1519 1517 1516 1513 1512 1510 1508 1507 1508 1508 1501 1489 1483 1466 1452 1455 1456 1462 1463 1459 1450 1434 1422 1407 1395 1392 1388 1385 1384
1550 1548 1546 1543 1542 1540 1538 1537 1535 1535 1535 1534 1533 1533 1532 1528 1522 1519 1517 1517 1514 1510 1507 1505 1504 1504 1505 1502 1497 1492 1483 1466 1454 1435 1431 1441 1449 1449 1440 1430 1416 1400 1402 1397 1391 1384 1387
1543 1541 1539 1537 1535 1534 1533 1531 1530 1529 1529 1529 1527 1528 1525 1519 1517 1516 1513 1512 1513 1511 1507 1503 1502 1500 1500 1496 1492 1486 1473 1466 1460 1452 1436 1423 1423 1430 1425 1426 1409 1399 1395 1393 1397 1400 1402
1536 1533 1531 1530 1528 1527 1526 1525 1524 1523 1523 1523 1519 1520 1518 1512 1509 1510 1508 1508 1507 1506 1502 1501 1499 1495 1493 1489 1484 1478 1469 1457 1448 1444 1440 1433 1437 1432 1421 1421 1418 1400 1395 1398 1415 1411 1408
1528 1526 1524 1523 1521 1520 1519 1518 1517 1517 1516 1516 1511 1512 1511 1505 1499 1499 1499 1499 1499 1499 1498 1497 1495 1492 1489 1483 1480 1474 1468 1462 1455 1445 1441 1438 1433 1429 1442 1416 1399 1415 1417 1417 1416 1417 1414